TimeCDT,TemperatureF,Dew PointF,Humidity,Sea Level PressureIn,VisibilityMPH,Wind Direction,Wind SpeedMPH,Gust SpeedMPH,PrecipitationIn,Events,Conditions,WindDirDegrees,DateUTC
12:58 AM,53.2,49.6,88,30.00,10.0,SSE,6.9,-,N/A,,Clear,160,2013-04-08 05:58:00
1:58 AM,59.2,51.6,76,30.00,10.0,South,6.9,-,N/A,,Clear,190,2013-04-08 06:58:00
3:58 AM,53.4,51.1,92,30.00,10.0,South,3.5,-,N/A,,Clear,170,2013-04-08 08:58:00
4:58 AM,51.4,51.1,99,30.00,10.0,South,5.8,-,N/A,,Clear,170,2013-04-08 09:58:00
5:58 AM,52.3,52.3,100,30.01,10.0,SSE,4.6,-,N/A,,Clear,150,2013-04-08 10:58:00
6:58 AM,52.5,52.5,100,30.04,10.0,SSE,3.5,-,N/A,,Clear,150,2013-04-08 11:58:00
7:58 AM,58.6,57.9,97,30.05,10.0,SSE,6.9,-,N/A,,Clear,160,2013-04-08 12:58:00
8:58 AM,64.8,56.8,75,30.06,10.0,South,9.2,-,N/A,,Partly Cloudy,180,2013-04-08 13:58:00
9:58 AM,67.3,57.9,72,30.08,10.0,South,8.1,-,N/A,,Mostly Cloudy,180,2013-04-08 14:58:00
10:28 AM,66.2,57.2,73,30.08,10.0,SSW,5.8,-,N/A,,Mostly Cloudy,210,2013-04-08 15:28:00
10:33 AM,66.2,57.2,73,30.08,10.0,South,5.8,-,N/A,,Mostly Cloudy,190,2013-04-08 15:33:00
10:58 AM,67.6,58.1,71,30.09,10.0,South,6.9,-,N/A,,Mostly Cloudy,180,2013-04-08 15:58:00
11:03 AM,68.0,59.0,73,30.08,10.0,South,5.8,-,N/A,,Scattered Clouds,170,2013-04-08 16:03:00
11:58 AM,71.4,59.4,66,30.07,10.0,Variable,5.8,-,N/A,,Mostly Cloudy,0,2013-04-08 16:58:00
12:08 PM,71.6,59.0,64,30.06,10.0,South,12.7,20.7,N/A,,Mostly Cloudy,190,2013-04-08 17:08:00
12:13 PM,71.6,59.0,64,30.06,10.0,SSW,11.5,20.7,N/A,,Mostly Cloudy,200,2013-04-08 17:13:00
12:18 PM,73.4,59.0,61,30.06,10.0,SSW,8.1,17.3,N/A,,Mostly Cloudy,200,2013-04-08 17:18:00
12:58 PM,74.5,59.7,60,30.05,10.0,South,11.5,18.4,N/A,,Scattered Clouds,190,2013-04-08 17:58:00
1:08 PM,73.4,59.0,61,30.04,10.0,South,13.8,19.6,N/A,,Mostly Cloudy,180,2013-04-08 18:08:00
1:13 PM,75.2,59.0,57,30.04,10.0,SSW,5.8,19.6,N/A,,Scattered Clouds,200,2013-04-08 18:13:00
1:58 PM,77.2,58.8,53,30.03,10.0,SSW,9.2,-,N/A,,Partly Cloudy,210,2013-04-08 18:58:00
2:51 PM,78.8,57.2,47,29.99,10.0,South,15.0,18.4,N/A,,Partly Cloudy,180,2013-04-08 19:51:00
2:58 PM,78.8,57.7,48,30.00,10.0,SSW,11.5,-,N/A,,Partly Cloudy,200,2013-04-08 19:58:00
3:58 PM,80.2,57.7,46,29.97,10.0,South,15.0,24.2,N/A,,Clear,190,2013-04-08 20:58:00
4:58 PM,81.3,56.3,42,29.95,10.0,South,15.0,21.9,N/A,,Partly Cloudy,190,2013-04-08 21:58:00
5:58 PM,80.8,56.8,44,29.96,10.0,South,10.4,18.4,N/A,,Clear,190,2013-04-08 22:58:00
6:58 PM,77.7,58.3,51,29.96,10.0,South,9.2,-,N/A,,Clear,180,2013-04-08 23:58:00
7:58 PM,72.7,58.3,60,29.96,10.0,South,9.2,-,N/A,,Clear,170,2013-04-09 00:58:00
8:58 PM,71.8,57.7,61,29.96,10.0,South,9.2,-,N/A,,Clear,170,2013-04-09 01:58:00
9:11 PM,69.8,59.0,68,29.96,10.0,SSE,5.8,-,N/A,Rain,Light Rain,160,2013-04-09 02:11:00
9:19 PM,68.0,57.2,68,29.96,10.0,SSE,6.9,-,N/A,,Clear,160,2013-04-09 02:19:00
9:58 PM,69.6,57.4,65,29.99,10.0,South,6.9,-,0.00,,Clear,190,2013-04-09 02:58:00
10:58 PM,70.2,58.1,65,29.98,10.0,South,8.1,-,N/A,,Mostly Cloudy,170,2013-04-09 03:58:00
11:58 PM,70.5,58.6,66,29.98,10.0,South,8.1,18.4,N/A,,Scattered Clouds,190,2013-04-09 04:58:00